Home   Weather   Reykjavik   Past weeks

Flag for Iceland Past Weather in Reykjavik, Iceland — Yesterday and Last 2 Weeks

Now
46 °F

Mostly cloudy.


Feels Like: 41 °F
Forecast: 42 / 46 °F
Wind: 12 mph from Southwest

Location: Reykjavik Airport

Current Time: Apr 26, 2017 at 1:58:37 pm

Latest Report: Apr 26, 2017 at 1:00 pm


Visibility: N/A

Pressure: 30.12 "Hg

Humidity: 82%

Dew Point: 41 °F

Location of ReykjavikLocation

Past Weather in Reykjavik — Graph

°F

Reykjavik Temperature Yesterday

Maximum temperature yesterday: 43 °F (at 5:00 pm)
Minimum temperature yesterday: 30 °F (at 12:00 am)
Average temperature yesterday: 38 °F

High & Low Weather Summary for the Past Weeks

 TemperatureHumidityPressure
High46 °F (Apr 26, 12:00 pm)93% (Apr 11, 12:00 pm)30.63 "Hg (Apr 11, 12:00 pm)
Low23 °F (Apr 24, 4:00 am)24% (Apr 16, 6:00 pm)29.36 "Hg (Apr 11, 12:00 pm)
Average36 °F65%30.10 "Hg
* Reported Apr 11 12:00 pm — Apr 26 12:00 pm, Reykjavik, Weather by CustomWeather, © 2017

Note: Actual official high and low records may vary slightly from our data, if they occured in-between our weather recording intervals... More about our weather records

Advertising

Reykjavik Weather History for the Previous 24 Hours

Scroll right to see more
 ConditionsComfort  
Time TempWeatherWind HumidityBarometerVisibility
12:00 pm
Wed, Apr 26
46 °FFog.14 mph82%30.12 "Hg6 mi
11:00 am45 °FLight rain. Fog.13 mph87%30.12 "Hg4 mi
10:00 am45 °FDrizzle. Fog.12 mph87%30.12 "Hg5 mi
9:00 am45 °FFog.14 mph87%30.12 "Hg6 mi
8:00 am43 °FMostly cloudy.12 mph87%30.12 "HgN/A
7:00 am43 °FBroken clouds.8 mph81%30.12 "HgN/A
6:00 am41 °FPartly sunny.12 mph87%30.15 "HgN/A
5:00 am43 °FPassing clouds.13 mph87%30.15 "HgN/A
4:00 am43 °FMostly cloudy.13 mph87%30.15 "HgN/A
3:00 am43 °FMostly cloudy.10 mph87%30.15 "HgN/A
2:00 am43 °FMostly cloudy.10 mph87%30.18 "HgN/A
1:00 am43 °FMostly cloudy.10 mph87%30.18 "HgN/A
12:00 am43 °FMostly cloudy.12 mph87%30.21 "HgN/A
11:00 pm
Tue, Apr 25
43 °FMostly cloudy.12 mph87%30.21 "HgN/A
10:00 pm43 °FOvercast.13 mph87%30.24 "HgN/A
9:00 pm43 °FOvercast.14 mph87%30.24 "HgN/A
8:00 pm43 °FPartly sunny.10 mph87%30.24 "HgN/A
7:00 pm43 °FScattered showers. Low clouds.13 mph87%30.27 "HgN/A
6:00 pm43 °FScattered showers. Low clouds.8 mph87%30.27 "HgN/A
5:00 pm43 °FLight rain. Mostly cloudy.9 mph87%30.30 "HgN/A
4:00 pm41 °FLight rain. More clouds than sun.5 mph87%30.30 "HgN/A
3:00 pm41 °FLight rain. Low clouds.8 mph81%30.33 "HgN/A
2:00 pm39 °FMixture of precip. Overcast.7 mph81%30.36 "Hg6 mi
1:00 pm41 °FLight rain. Mostly cloudy.10 mph76%30.36 "Hg4 mi
Weather by CustomWeather, © 2017

See weather overviewHow to use our weather pages